Weather in Drumnadrochit

United Kingdom     57°20′04″N   4°28′46″W
temp.,
°C
wind,
m/s
gust,
m/s
humid.,
%
clouds,
%
prec.,
mm/h
press.,
hPa
HPBL,
m
25 february, thu
thu2500:00+3ssw7158739 0.1 10091161
03:00+3ssw7168717 0.0 10091098
06:00+3sw8169257 0.7 10111289
09:00+3wsw8168933 0.1 10131398
12:00+5wsw9157566 0.2 10171375
15:00+4wsw7137888 0.2 10201383
18:00+2wsw4128984 0.4 1023949
21:00+1sw4119379 0.0 1026493
26 february, fri
fri2600:00+1sw4129289 0.0 1028534
03:00+2sw5118689 0.0 1029621
06:00+3ssw4108995 0.0 1029490
09:00+3ssw5109050 0.0 1030591
12:00+7ssw5107227 0.0 1031954
15:00+7ssw5106734 0.0 10301047
18:00+4s388854 0.0 1030303
21:00+3s3129195 0.0 1030780
27 february, sat
sat2700:00+3s359397 0.0 1029167
03:00+4s41290100 0.1 1030573
06:00+4sw479697 0.3 1032241
09:00+4ssw359438 0.0 1034234
12:00+6sw357940 0.0 1036636
15:00+7sw457030 0.1 1036989
18:00+3ssw348820 0.1 103793
21:00+2ssw34920 0.0 1037100
28 february, sun
sun2800:00+1ssw35958 0.0 1037120
03:00+1ssw359576 0.0 1036129
06:00+1ssw369559 0.0 1035161
09:00+2ssw468918 0.0 1035258
12:00+6sw476928 0.0 1034509
15:00+7sw466899 0.0 1033593
18:00+3ssw348973 0.0 103390
21:00+1ssw359329 0.0 103391
1 march, mon
mon100:00+1ssw369154 0.0 1033122
03:000ssw3389100 0.0 103277
06:000sw238976 0.0 103247
09:00+3ssw228064 0.0 103274
12:00+8n116367 0.0 1031402
15:00+8nne236217 0.0 1030517
18:00+2ne23919 0.0 102929
21:000ene12930 0.0 103022